Joe Foss Field Airport
KFSD : now visible

Airfield :











YOU CAN JOIN US ON...

 
LOGIN :

Register | Disclaimer

   EN    FR    IT 

 









Legend :    VFR   Marginal VFR   IFR   Intensive IFR   Very Intensive IFR
Visi :
Ceiling :
>= 8 km
>= 3000ft
5 to 8 km
1000 to 3000 ft
1500m to 5 km
500 to 1000 ft
800 to 1500m
200 to 500 ft
< 800m
< 200 ft
Symbols :   Thunderstorms  Fog  Heavy snow  Heavy precipitations  Wind > 20 kt






- Airport Elevation : 1429 ft
- IATA code : FSD


KFSD - Joe Foss Field

CURRENT METAR :
  • 200956Z 31007KT 10SM FEW250 M04/M10 A3017 RMK AO2 SLP233 T10441100

EXPIRED METARs :
  • 200856Z AUTO 31008KT 10SM CLR M04/M10 A3016 RMK AO2 SLP230 T10391100 55000
  • 200756Z AUTO 31007KT 10SM CLR M03/M10 A3015 RMK AO2 SLP227 T10331100

TAF KFSD
Valid from the 20 at 06:00 until the 21 at 06:00 UTC


200520Z 2006/2106 33004KT P6SM SCT250
FM201600 33009G17KT P6SM BKN080
FM202300 36010G17KT P6SM VCSH BKN080
FM210300 01005KT P6SM BKN070
KZMP FIR / North America



MET'MAP, your aeronautical weather chart ! - Copyright ORBIFLY December 2007 - Disclaimer

ORBIFLY MET'MAP TEAM :

Programming & Development : Alexandra Zaïnal
Concept & original design : Baudouin d'Aumeries
Assistance for programming : Marc-Olivier Méhu
Technical & hardware support : Manuel Goepfert

Contact : metmap@orbifly.com




SOURCES & CREDITS :

   NOAA       Earth
Advisory